Hourly Data Report for October 13, 2014

All times are specified in Local Standard Time (LST). Add 1 hour to adjust for Daylight Saving Time where and when it is observed.

QIKIQTARJUAQ A
NUNAVUT

67°32'48.000" N
64°01'54.000" W
5.50 m
2400577
YVM

Download Data

Hourly Data (October 2014)
Hourly Data Report for October 13, 2014
Temp Definition
°C
Dew Point Temp Definition
°C
Rel Hum Definition
%
Wind Dir Definition
10's deg

Wind Spd Definition
km/h
Visibility Definition
km
Stn Press Definition
kPa
Hmdx Definition


Wind Chill Definition


Weather Definition


TIME
00:00 Legend Double Dagger 0.3 -4.5 70 20 15 16.1 101.06     LegendNANA
01:00 Legend Double Dagger -0.3 -3.7 78 22 21 16.1 101.06   -6 LegendNANA
02:00 Legend Double Dagger -0.5 -3.8 79 20 21 16.1 101.08   -6 LegendNANA
03:00 Legend Double Dagger -0.2 -4.3 74 18 17 16.1 101.07   -5 LegendNANA
04:00 Legend Double Dagger 0.3 -3.8 74 19 17 16.1 101.07     LegendNANA
05:00 Legend Double Dagger 0.3 -3.1 78 19 17 16.1 101.08     LegendNANA
06:00 Legend Double Dagger -0.3 -2.8 83 20 9 16.1 101.08   -3 LegendNANA
07:00 Legend Double Dagger -1.1 -3.2 86 20 9 16.1 101.06   -4 LegendNANA
08:00 Legend Double Dagger -0.7 -3.0 85 LegendMM 4 16.1 101.04   -2 LegendNANA
09:00 Legend Double Dagger -0.3 -2.7 84   0 16.1 101.02     LegendNANA
10:00 Legend Double Dagger -0.2 -2.1 87 LegendMM 4 16.1 101.00   -1 LegendNANA
11:00 Legend Double Dagger -0.2 -2.0 88 20 11 16.1 100.97   -4 LegendNANA
12:00 Legend Double Dagger 0.0 -1.8 87 18 9 16.1 100.94   -3 LegendNANA
13:00 Legend Double Dagger 0.0 -1.3 91 20 5 16.1 100.94   -2 Rain
14:00 Legend Double Dagger 0.0 -1.3 91 19 5 16.1 100.95   -2 Rain
15:00 Legend Double Dagger -1.0 -2.0 93   0 16.1 100.96     Snow
16:00 Legend Double Dagger -0.8 -1.7 94 21 5 16.1 100.95   -2 LegendNANA
17:00 Legend Double Dagger -1.6 -2.3 95 15 9 16.1 100.93   -5 LegendNANA
18:00 Legend Double Dagger -1.9 -2.6 95 15 5 16.1 100.93   -4 LegendNANA
19:00 Legend Double Dagger -3.4 -4.6 91 LegendMM 9 16.1 100.92   -7 LegendNANA
20:00 Legend Double Dagger -2.7 -4.1 90 LegendMM 4 16.1 100.94   -4 LegendNANA
21:00 Legend Double Dagger -3.1 -4.5 90 23 15 16.1 100.92   -8 LegendNANA
22:00 Legend Double Dagger -3.6 -5.0 90 10 5 16.1 100.92   -6 LegendNANA
23:00 Legend Double Dagger -3.7 -6.3 82 16 5 16.1 100.90   -6 LegendNANA

Notes on Data Quality.

Legend

  • E = Estimated
  • M = Missing
  • NA = Not Available
  • ‡ = Partner data that is not subject to review by the National Climate Archives
Date modified: